Time,TemperatureF,DewpointF,PressureIn,WindDirection,WindDirectionDegrees,WindSpeedMPH,WindSpeedGustMPH,Humidity,HourlyPrecipIn,Conditions,Clouds,dailyrainin,SoftwareType,DateUTC
2013-04-04 00:00:00,44.9,24.8,30.16,NE,36,1.1,1.1,45,0.00,CLR,,0.00,WeatherDisplay:10.37,2013-04-04 05:00:00,
2013-04-04 00:05:00,44.9,24.8,30.15,NE,36,1.1,1.1,45,0.00,CLR,,0.00,WeatherDisplay:10.37,2013-04-04 05:05:00,
2013-04-04 00:10:00,44.9,24.8,30.15,NE,36,0.0,0.0,45,0.00,CLR,,0.00,WeatherDisplay:10.37,2013-04-04 05:10:00,
2013-04-04 00:15:00,44.8,24.7,30.15,NE,36,1.1,1.1,45,0.00,CLR,,0.00,WeatherDisplay:10.37,2013-04-04 05:15:00,
2013-04-04 00:20:00,44.8,24.7,30.15,NE,36,1.1,1.1,45,0.00,CLR,,0.00,WeatherDisplay:10.37,2013-04-04 05:20:00,
2013-04-04 00:25:00,44.7,24.6,30.15,NE,36,1.1,1.1,45,0.00,CLR,,0.00,WeatherDisplay:10.37,2013-04-04 05:25:00,
2013-04-04 00:30:00,44.7,24.6,30.15,NE,38,2.3,2.3,45,0.00,CLR,,0.00,WeatherDisplay:10.37,2013-04-04 05:30:00,
2013-04-04 00:35:00,44.7,24.6,30.15,NE,38,1.1,1.1,45,0.00,CLR,,0.00,WeatherDisplay:10.37,2013-04-04 05:35:00,
2013-04-04 00:40:00,44.7,24.6,30.15,NE,38,1.1,0.0,45,0.00,CLR,,0.00,WeatherDisplay:10.37,2013-04-04 05:40:00,
2013-04-04 00:45:00,44.6,24.5,30.15,NE,39,1.1,1.1,45,0.00,CLR,,0.00,WeatherDisplay:10.37,2013-04-04 05:45:00,
2013-04-04 00:51:00,44.5,24.5,30.15,NE,39,1.1,1.1,45,0.00,CLR,,0.00,WeatherDisplay:10.37,2013-04-04 05:51:00,
2013-04-04 00:56:00,44.5,24.5,30.15,NE,39,1.1,1.1,45,0.00,CLR,,0.00,WeatherDisplay:10.37,2013-04-04 05:56:00,
2013-04-04 01:01:00,44.5,24.5,30.15,NE,39,1.1,1.1,45,0.00,CLR,,0.00,WeatherDisplay:10.37,2013-04-04 06:01:00,
2013-04-04 01:06:00,44.5,24.5,30.14,NE,39,2.3,2.3,45,0.00,CLR,,0.00,WeatherDisplay:10.37,2013-04-04 06:06:00,
2013-04-04 01:11:00,44.5,24.5,30.14,NE,39,1.1,0.0,45,0.00,CLR,,0.00,WeatherDisplay:10.37,2013-04-04 06:11:00,
2013-04-04 01:16:00,44.4,24.9,30.14,NE,34,1.1,1.1,46,0.00,CLR,,0.00,WeatherDisplay:10.37,2013-04-04 06:16:00,
2013-04-04 01:21:00,44.5,25.0,30.14,NE,34,2.3,2.3,46,0.00,CLR,,0.00,WeatherDisplay:10.37,2013-04-04 06:21:00,
2013-04-04 01:26:00,44.4,24.9,30.14,NE,34,1.1,0.0,46,0.00,CLR,,0.00,WeatherDisplay:10.37,2013-04-04 06:26:00,
2013-04-04 01:31:00,44.3,24.8,30.13,NE,36,1.1,1.1,46,0.00,CLR,,0.00,WeatherDisplay:10.37,2013-04-04 06:31:00,
2013-04-04 01:36:00,44.4,25.4,30.13,NE,36,1.1,1.1,47,0.00,CLR,,0.00,WeatherDisplay:10.37,2013-04-04 06:36:00,
2013-04-04 01:41:00,44.3,25.3,30.13,NE,36,1.1,1.1,47,0.00,CLR,,0.00,WeatherDisplay:10.37,2013-04-04 06:41:00,
2013-04-04 01:46:00,44.4,24.9,30.13,NE,38,2.3,2.3,46,0.00,CLR,,0.00,WeatherDisplay:10.37,2013-04-04 06:46:00,
2013-04-04 01:52:00,44.4,24.9,30.12,NE,38,1.1,1.1,46,0.00,CLR,,0.00,WeatherDisplay:10.37,2013-04-04 06:52:00,
2013-04-04 01:57:00,44.4,24.9,30.12,NE,38,2.3,2.3,46,0.00,CLR,,0.00,WeatherDisplay:10.37,2013-04-04 06:57:00,
2013-04-04 02:02:00,44.3,24.8,30.12,NE,38,2.0,2.0,46,0.00,CLR,,0.00,WeatherDisplay:10.37,2013-04-04 07:02:00,
2013-04-04 02:07:00,44.3,25.3,30.12,NNE,33,2.3,2.3,47,0.00,CLR,,0.00,WeatherDisplay:10.37,2013-04-04 07:07:00,
2013-04-04 02:12:00,44.3,24.8,30.12,NE,34,2.3,2.3,46,0.00,CLR,,0.00,WeatherDisplay:10.37,2013-04-04 07:12:00,
2013-04-04 02:17:00,44.3,24.8,30.11,NNE,31,2.3,2.3,46,0.00,CLR,,0.00,WeatherDisplay:10.37,2013-04-04 07:17:00,
2013-04-04 02:22:00,44.4,24.4,30.10,NNE,33,2.3,2.3,45,0.00,CLR,,0.00,WeatherDisplay:10.37,2013-04-04 07:22:00,
2013-04-04 02:27:00,44.3,24.8,30.10,NNE,25,3.5,3.5,46,0.00,CLR,,0.00,WeatherDisplay:10.37,2013-04-04 07:27:00,
2013-04-04 02:32:00,44.3,24.3,30.10,NE,36,3.5,3.5,45,0.00,CLR,,0.00,WeatherDisplay:10.37,2013-04-04 07:32:00,
2013-04-04 02:37:00,44.3,24.8,30.10,NNE,29,2.3,2.3,46,0.00,CLR,,0.00,WeatherDisplay:10.37,2013-04-04 07:37:00,
2013-04-04 02:42:00,44.3,24.3,30.09,NE,38,3.5,3.5,45,0.00,CLR,,0.00,WeatherDisplay:10.37,2013-04-04 07:42:00,
2013-04-04 02:47:00,44.4,24.4,30.09,NNE,31,3.5,3.5,45,0.00,CLR,,0.00,WeatherDisplay:10.37,2013-04-04 07:47:00,
2013-04-04 02:52:00,44.4,24.4,30.09,NE,50,2.3,2.3,45,0.00,CLR,,0.00,WeatherDisplay:10.37,2013-04-04 07:52:00,
2013-04-04 02:57:00,44.3,24.3,30.09,NNE,28,3.5,3.5,45,0.00,CLR,,0.00,WeatherDisplay:10.37,2013-04-04 07:57:00,
2013-04-04 03:02:00,44.3,24.8,30.08,NNE,28,0.0,0.0,46,0.00,CLR,,0.00,WeatherDisplay:10.37,2013-04-04 08:02:00,
2013-04-04 03:07:00,44.2,24.7,30.09,NNE,28,2.3,2.3,46,0.00,CLR,,0.00,WeatherDisplay:10.37,2013-04-04 08:07:00,
2013-04-04 03:12:00,44.1,24.6,30.09,NNE,28,1.1,1.1,46,0.00,CLR,,0.00,WeatherDisplay:10.37,2013-04-04 08:12:00,
2013-04-04 03:17:00,44.0,24.5,30.09,NNE,28,1.1,1.1,46,0.00,CLR,,0.00,WeatherDisplay:10.37,2013-04-04 08:17:00,
2013-04-04 03:22:00,43.8,24.9,30.09,NNE,28,0.0,0.0,47,0.00,CLR,,0.00,WeatherDisplay:10.37,2013-04-04 08:22:00,
2013-04-04 03:27:00,43.7,24.8,30.09,NNE,28,2.3,2.3,47,0.00,CLR,,0.00,WeatherDisplay:10.37,2013-04-04 08:27:00,
2013-04-04 03:32:00,43.6,25.2,30.09,NNE,27,1.0,0.0,48,0.00,CLR,,0.00,WeatherDisplay:10.37,2013-04-04 08:32:00,
2013-04-04 03:37:00,43.4,25.0,30.09,NNE,27,1.1,0.0,48,0.00,CLR,,0.00,WeatherDisplay:10.37,2013-04-04 08:37:00,
2013-04-04 03:42:00,43.4,25.5,30.09,NNE,27,0.0,0.0,49,0.00,CLR,,0.00,WeatherDisplay:10.37,2013-04-04 08:42:00,
2013-04-04 03:47:00,43.3,24.9,30.09,NNE,27,0.0,0.0,48,0.00,CLR,,0.00,WeatherDisplay:10.37,2013-04-04 08:47:00,
2013-04-04 03:52:00,43.3,25.4,30.09,NNE,27,1.1,1.1,49,0.00,CLR,,0.00,WeatherDisplay:10.37,2013-04-04 08:52:00,
2013-04-04 03:57:00,43.2,25.3,30.09,NNE,25,0.0,0.0,49,0.00,CLR,,0.00,WeatherDisplay:10.37,2013-04-04 08:57:00,
2013-04-04 04:02:00,43.2,25.3,30.09,NNE,25,1.1,1.1,49,0.00,CLR,,0.00,WeatherDisplay:10.37,2013-04-04 09:02:00,
2013-04-04 04:07:00,43.2,25.8,30.09,NNE,25,0.0,0.0,50,0.00,CLR,,0.00,WeatherDisplay:10.37,2013-04-04 09:07:00,
2013-04-04 04:12:00,43.1,25.7,30.09,NNE,24,1.1,0.0,50,0.00,CLR,,0.00,WeatherDisplay:10.37,2013-04-04 09:12:00,
2013-04-04 04:17:00,43.0,25.6,30.09,NNE,24,1.1,1.1,50,0.00,CLR,,0.00,WeatherDisplay:10.37,2013-04-04 09:17:00,
2013-04-04 04:22:00,43.0,26.1,30.09,NNE,23,1.0,0.0,51,0.00,CLR,,0.00,WeatherDisplay:10.37,2013-04-04 09:22:00,
2013-04-04 04:28:00,42.9,26.0,30.09,NNE,22,2.3,2.3,51,0.00,CLR,,0.00,WeatherDisplay:10.37,2013-04-04 09:28:00,
2013-04-04 04:33:00,42.8,25.4,30.08,NNE,21,1.0,0.0,50,0.00,CLR,,0.00,WeatherDisplay:10.37,2013-04-04 09:33:00,
2013-04-04 04:38:00,42.8,25.4,30.08,NNE,12,2.3,2.3,50,0.00,CLR,,0.00,WeatherDisplay:10.37,2013-04-04 09:38:00,
2013-04-04 04:43:00,42.8,25.4,30.08,NNE,12,0.0,0.0,50,0.00,CLR,,0.00,WeatherDisplay:10.37,2013-04-04 09:43:00,
2013-04-04 04:48:00,42.8,25.9,30.08,NNE,12,0.0,0.0,51,0.00,CLR,,0.00,WeatherDisplay:10.37,2013-04-04 09:48:00,
2013-04-04 04:53:00,42.7,25.8,30.08,NNE,12,0.0,0.0,51,0.00,CLR,,0.00,WeatherDisplay:10.37,2013-04-04 09:53:00,
2013-04-04 04:58:00,42.6,25.7,30.08,NNE,12,2.3,2.3,51,0.00,CLR,,0.00,WeatherDisplay:10.37,2013-04-04 09:58:00,
2013-04-04 05:03:00,42.5,26.1,30.08,NNE,12,1.1,1.1,52,0.00,CLR,,0.00,WeatherDisplay:10.37,2013-04-04 10:03:00,
2013-04-04 05:08:00,42.4,26.0,30.07,NNE,13,2.3,2.3,52,0.00,CLR,,0.00,WeatherDisplay:10.37,2013-04-04 10:08:00,
2013-04-04 05:13:00,42.3,25.9,30.07,NNE,19,2.3,2.3,52,0.00,CLR,,0.00,WeatherDisplay:10.37,2013-04-04 10:13:00,
2013-04-04 05:18:00,42.2,25.8,30.07,NNE,19,1.1,0.0,52,0.00,CLR,,0.00,WeatherDisplay:10.37,2013-04-04 10:18:00,
2013-04-04 05:23:00,42.1,25.7,30.07,NNE,19,1.1,1.1,52,0.00,CLR,,0.00,WeatherDisplay:10.37,2013-04-04 10:23:00,
2013-04-04 05:28:00,42.0,25.6,30.07,NNE,20,1.1,0.0,52,0.00,CLR,,0.00,WeatherDisplay:10.37,2013-04-04 10:28:00,
2013-04-04 05:33:00,41.9,26.0,30.07,NNE,20,1.1,1.1,53,0.00,CLR,,0.00,WeatherDisplay:10.37,2013-04-04 10:33:00,
2013-04-04 05:38:00,41.8,25.4,30.07,NNE,20,1.1,1.1,52,0.00,CLR,,0.00,WeatherDisplay:10.37,2013-04-04 10:38:00,
2013-04-04 05:43:00,41.7,25.4,30.07,North,10,1.1,1.1,52,0.00,CLR,,0.00,WeatherDisplay:10.37,2013-04-04 10:43:00,
2013-04-04 05:48:00,41.7,25.4,30.07,NNE,17,1.1,1.1,52,0.00,CLR,,0.00,WeatherDisplay:10.37,2013-04-04 10:48:00,
2013-04-04 05:53:00,41.6,25.3,30.07,NNE,25,1.1,1.1,52,0.00,CLR,,0.00,WeatherDisplay:10.37,2013-04-04 10:53:00,
2013-04-04 05:58:00,41.6,25.3,30.07,NNE,18,1.1,1.1,52,0.00,CLR,,0.00,WeatherDisplay:10.37,2013-04-04 10:58:00,
2013-04-04 06:03:00,41.6,25.3,30.07,NNE,17,1.1,1.1,52,0.00,CLR,,0.00,WeatherDisplay:10.37,2013-04-04 11:03:00,
2013-04-04 06:08:00,41.6,25.3,30.07,NNE,17,1.1,1.1,52,0.00,CLR,,0.00,WeatherDisplay:10.37,2013-04-04 11:08:00,
2013-04-04 06:13:00,41.5,25.2,30.06,NNE,25,1.1,0.0,52,0.00,CLR,,0.00,WeatherDisplay:10.37,2013-04-04 11:13:00,
2013-04-04 06:18:00,41.5,25.2,30.06,NNE,25,1.1,0.0,52,0.00,CLR,,0.00,WeatherDisplay:10.37,2013-04-04 11:18:00,
2013-04-04 06:23:00,41.5,25.2,30.07,NNE,25,1.1,0.0,52,0.00,CLR,,0.00,WeatherDisplay:10.37,2013-04-04 11:23:00,
2013-04-04 06:28:00,41.5,25.2,30.07,NNE,25,1.1,0.0,52,0.00,CLR,,0.00,WeatherDisplay:10.37,2013-04-04 11:28:00,
2013-04-04 06:33:00,41.5,25.2,30.07,NNE,25,1.1,1.1,52,0.00,CLR,,0.00,WeatherDisplay:10.37,2013-04-04 11:33:00,
2013-04-04 06:39:00,41.5,24.7,30.07,NNE,25,1.1,1.1,51,0.00,CLR,,0.00,WeatherDisplay:10.37,2013-04-04 11:39:00,
2013-04-04 06:44:00,41.6,24.8,30.07,NNE,25,0.0,0.0,51,0.00,CLR,,0.00,WeatherDisplay:10.37,2013-04-04 11:44:00,
2013-04-04 06:49:00,41.6,24.8,30.07,NNE,25,0.0,0.0,51,0.00,CLR,,0.00,WeatherDisplay:10.37,2013-04-04 11:49:00,
2013-04-04 06:54:00,41.6,25.3,30.07,NNE,25,0.0,0.0,52,0.00,CLR,,0.00,WeatherDisplay:10.37,2013-04-04 11:54:00,
2013-04-04 06:59:00,41.7,24.9,30.07,NNE,25,1.1,1.1,51,0.00,CLR,,0.00,WeatherDisplay:10.37,2013-04-04 11:59:00,
2013-04-04 07:04:00,41.7,25.4,30.07,NNE,25,0.0,0.0,52,0.00,CLR,,0.00,WeatherDisplay:10.37,2013-04-04 12:04:00,
2013-04-04 07:09:00,41.8,25.0,30.07,NNE,25,1.1,0.0,51,0.00,CLR,,0.00,WeatherDisplay:10.37,2013-04-04 12:09:00,
2013-04-04 07:14:00,41.8,25.0,30.08,NNE,25,1.1,0.0,51,0.00,CLR,,0.00,WeatherDisplay:10.37,2013-04-04 12:14:00,
2013-04-04 07:19:00,41.9,25.5,30.08,NNE,25,0.0,0.0,52,0.00,CLR,,0.00,WeatherDisplay:10.37,2013-04-04 12:19:00,
2013-04-04 07:24:00,41.9,26.0,30.08,NNE,25,1.1,0.0,53,0.00,CLR,,0.00,WeatherDisplay:10.37,2013-04-04 12:24:00,
2013-04-04 07:29:00,42.0,25.6,30.08,NNE,22,2.3,2.3,52,0.00,CLR,,0.00,WeatherDisplay:10.37,2013-04-04 12:29:00,
2013-04-04 07:34:00,42.1,25.7,30.08,NNE,26,1.1,1.1,52,0.00,CLR,,0.00,WeatherDisplay:10.37,2013-04-04 12:34:00,
2013-04-04 07:39:00,42.2,25.3,30.07,NNE,27,2.3,2.3,51,0.00,CLR,,0.00,WeatherDisplay:10.37,2013-04-04 12:39:00,
2013-04-04 07:44:00,42.4,25.1,30.08,NE,35,2.0,2.0,50,0.00,CLR,,0.00,WeatherDisplay:10.37,2013-04-04 12:44:00,
2013-04-04 07:49:00,42.5,25.1,30.07,NE,35,3.5,3.5,50,0.00,CLR,,0.00,WeatherDisplay:10.37,2013-04-04 12:49:00,
2013-04-04 07:54:00,42.6,25.2,30.07,NE,35,2.3,2.3,50,0.00,CLR,,0.00,WeatherDisplay:10.37,2013-04-04 12:54:00,
2013-04-04 07:59:00,42.7,24.8,30.07,NE,37,2.3,2.3,49,0.00,CLR,,0.00,WeatherDisplay:10.37,2013-04-04 12:59:00,
2013-04-04 08:04:00,42.8,25.4,30.07,NE,40,2.0,2.0,50,0.00,CLR,,0.00,WeatherDisplay:10.37,2013-04-04 13:04:00,
2013-04-04 08:09:00,42.9,25.0,30.07,NE,40,2.3,2.3,49,0.00,CLR,,0.00,WeatherDisplay:10.37,2013-04-04 13:09:00,
2013-04-04 08:14:00,42.9,25.0,30.07,NNE,16,2.3,2.3,49,0.00,CLR,,0.00,WeatherDisplay:10.37,2013-04-04 13:14:00,
2013-04-04 08:19:00,43.1,24.7,30.07,NE,35,2.3,2.3,48,0.00,CLR,,0.00,WeatherDisplay:10.37,2013-04-04 13:19:00,
2013-04-04 08:25:00,43.1,25.2,30.07,NE,44,2.3,2.3,49,0.00,CLR,,0.00,WeatherDisplay:10.37,2013-04-04 13:25:00,
2013-04-04 08:30:00,43.3,24.9,30.07,NNE,27,3.5,3.5,48,0.00,CLR,,0.00,WeatherDisplay:10.37,2013-04-04 13:30:00,
2013-04-04 08:35:00,43.4,26.5,30.07,NE,42,3.5,3.5,51,0.00,CLR,,0.00,WeatherDisplay:10.37,2013-04-04 13:35:00,
2013-04-04 08:40:00,43.4,25.0,30.07,NNE,29,4.0,4.0,48,0.00,CLR,,0.00,WeatherDisplay:10.37,2013-04-04 13:40:00,
2013-04-04 08:45:00,43.5,25.6,30.07,NNE,28,3.0,3.0,49,0.00,CLR,,0.00,WeatherDisplay:10.37,2013-04-04 13:45:00,
2013-04-04 08:50:00,43.6,25.2,30.07,NE,36,3.5,3.5,48,0.00,CLR,,0.00,WeatherDisplay:10.37,2013-04-04 13:50:00,
2013-04-04 08:55:00,43.7,25.3,30.07,NNE,18,3.5,3.5,48,0.00,CLR,,0.00,WeatherDisplay:10.37,2013-04-04 13:55:00,
2013-04-04 09:00:00,43.7,25.3,30.07,NNE,24,1.1,1.1,48,0.00,CLR,,0.00,WeatherDisplay:10.37,2013-04-04 14:00:00,
2013-04-04 09:05:00,43.7,25.3,30.07,NNE,25,1.1,1.1,48,0.00,CLR,,0.00,WeatherDisplay:10.37,2013-04-04 14:05:00,
2013-04-04 09:10:00,43.7,25.3,30.07,NNE,27,1.1,0.0,48,0.00,CLR,,0.00,WeatherDisplay:10.37,2013-04-04 14:10:00,
2013-04-04 09:15:00,43.7,25.3,30.07,NE,34,1.1,1.1,48,0.00,CLR,,0.00,WeatherDisplay:10.37,2013-04-04 14:15:00,
2013-04-04 09:20:00,43.8,26.3,30.07,NE,34,1.1,1.1,50,0.00,CLR,,0.00,WeatherDisplay:10.37,2013-04-04 14:20:00,
2013-04-04 09:25:00,43.9,25.5,30.07,NE,42,3.0,3.0,48,0.00,CLR,,0.00,WeatherDisplay:10.37,2013-04-04 14:25:00,
2013-04-04 09:30:00,44.1,26.1,30.07,NNE,33,2.3,2.3,49,0.00,CLR,,0.00,WeatherDisplay:10.37,2013-04-04 14:30:00,
2013-04-04 09:35:00,44.3,25.3,30.07,NNE,33,1.1,1.1,47,0.00,CLR,,0.00,WeatherDisplay:10.37,2013-04-04 14:35:00,
2013-04-04 09:40:00,44.5,26.5,30.07,ENE,67,1.1,1.1,49,0.00,CLR,,0.00,WeatherDisplay:10.37,2013-04-04 14:40:00,
2013-04-04 09:45:00,44.5,25.5,30.07,NE,35,2.3,2.3,47,0.00,CLR,,0.00,WeatherDisplay:10.37,2013-04-04 14:45:00,
2013-04-04 09:50:00,44.7,26.2,30.07,NE,46,2.3,2.3,48,0.00,CLR,,0.00,WeatherDisplay:10.37,2013-04-04 14:50:00,
2013-04-04 09:55:00,45.0,27.0,30.07,NE,44,2.3,2.3,49,0.00,CLR,,0.00,WeatherDisplay:10.37,2013-04-04 14:55:00,
2013-04-04 10:00:00,45.2,26.7,30.07,NE,42,3.5,3.5,48,0.00,CLR,,0.00,WeatherDisplay:10.37,2013-04-04 15:00:00,
2013-04-04 10:06:00,45.3,25.7,30.07,NE,42,2.3,2.3,46,0.00,CLR,,0.00,WeatherDisplay:10.37,2013-04-04 15:06:00,
2013-04-04 10:11:00,45.5,25.9,30.07,NE,39,2.3,2.3,46,0.00,CLR,,0.00,WeatherDisplay:10.37,2013-04-04 15:11:00,
2013-04-04 10:16:00,45.8,26.7,30.07,NE,38,2.3,2.3,47,0.00,CLR,,0.00,WeatherDisplay:10.37,2013-04-04 15:16:00,
2013-04-04 10:21:00,45.9,26.8,30.08,NE,34,2.3,2.3,47,0.00,CLR,,0.00,WeatherDisplay:10.37,2013-04-04 15:21:00,
2013-04-04 10:26:00,46.1,26.4,30.08,NE,40,2.3,0.0,46,0.00,CLR,,0.00,WeatherDisplay:10.37,2013-04-04 15:26:00,
2013-04-04 10:31:00,46.3,27.7,30.08,East,81,3.5,3.5,48,0.00,CLR,,0.00,WeatherDisplay:10.37,2013-04-04 15:31:00,
2013-04-04 10:36:00,46.5,27.8,30.08,East,83,1.1,1.1,48,0.00,CLR,,0.00,WeatherDisplay:10.37,2013-04-04 15:36:00,
2013-04-04 10:41:00,46.7,28.0,30.08,ENE,69,1.1,1.1,48,0.00,CLR,,0.00,WeatherDisplay:10.37,2013-04-04 15:41:00,
2013-04-04 10:46:00,46.9,28.7,30.08,ESE,115,3.5,3.5,49,0.00,CLR,,0.00,WeatherDisplay:10.37,2013-04-04 15:46:00,
2013-04-04 10:51:00,47.2,28.0,30.08,NE,46,2.3,2.3,47,0.00,CLR,,0.00,WeatherDisplay:10.37,2013-04-04 15:51:00,
2013-04-04 10:56:00,47.3,28.1,30.08,ENE,76,3.5,3.5,47,0.00,CLR,,0.00,WeatherDisplay:10.37,2013-04-04 15:56:00,
2013-04-04 11:02:00,47.6,27.8,30.08,NE,45,2.3,2.3,46,0.00,CLR,,0.00,WeatherDisplay:10.37,2013-04-04 16:02:00,
2013-04-04 11:07:00,47.8,28.0,30.07,East,98,2.0,2.0,46,0.00,CLR,,0.00,WeatherDisplay:10.37,2013-04-04 16:07:00,
2013-04-04 11:12:00,48.3,29.0,30.07,ESE,102,4.6,4.6,47,0.00,CLR,,0.00,WeatherDisplay:10.37,2013-04-04 16:12:00,
2013-04-04 11:17:00,49.2,29.8,30.07,ENE,74,2.3,2.3,47,0.00,CLR,,0.00,WeatherDisplay:10.37,2013-04-04 16:17:00,
2013-04-04 11:22:00,49.6,29.6,30.07,NE,51,4.6,4.6,46,0.00,CLR,,0.00,WeatherDisplay:10.37,2013-04-04 16:22:00,
2013-04-04 11:27:00,49.9,29.9,30.07,ESE,105,4.6,4.6,46,0.00,CLR,,0.00,WeatherDisplay:10.37,2013-04-04 16:27:00,
2013-04-04 11:32:00,50.3,30.3,30.07,East,101,1.1,1.1,46,0.00,CLR,,0.00,WeatherDisplay:10.37,2013-04-04 16:32:00,
2013-04-04 11:37:00,50.4,30.9,30.07,ESE,107,4.6,4.6,47,0.00,CLR,,0.00,WeatherDisplay:10.37,2013-04-04 16:37:00,
2013-04-04 11:42:00,50.5,31.0,30.06,East,79,3.5,3.5,47,0.00,CLR,,0.00,WeatherDisplay:10.37,2013-04-04 16:42:00,
2013-04-04 11:47:00,50.4,30.9,30.06,East,92,1.1,1.1,47,0.00,CLR,,0.00,WeatherDisplay:10.37,2013-04-04 16:47:00,
2013-04-04 11:52:00,50.1,31.7,30.06,East,92,0.0,0.0,49,0.00,CLR,,0.00,WeatherDisplay:10.37,2013-04-04 16:52:00,
2013-04-04 11:57:00,50.3,31.3,30.06,ENE,69,3.5,3.5,48,0.00,CLR,,0.00,WeatherDisplay:10.37,2013-04-04 16:57:00,
2013-04-04 12:02:00,50.7,32.2,30.06,ENE,65,3.5,3.5,49,0.00,CLR,,0.00,WeatherDisplay:10.37,2013-04-04 17:02:00,
2013-04-04 12:07:00,50.9,32.4,30.06,East,92,2.3,2.3,49,0.00,CLR,,0.00,WeatherDisplay:10.37,2013-04-04 17:07:00,
2013-04-04 12:12:00,50.7,32.2,30.06,East,82,3.5,3.5,49,0.00,CLR,,0.00,WeatherDisplay:10.37,2013-04-04 17:12:00,
2013-04-04 12:17:00,50.7,32.7,30.05,ESE,115,3.5,3.5,50,0.00,CLR,,0.00,WeatherDisplay:10.37,2013-04-04 17:17:00,
2013-04-04 12:22:00,50.8,32.8,30.05,East,86,3.0,3.0,50,0.00,CLR,,0.00,WeatherDisplay:10.37,2013-04-04 17:22:00,
2013-04-04 12:27:00,50.8,32.3,30.05,East,82,3.5,3.5,49,0.00,CLR,,0.00,WeatherDisplay:10.37,2013-04-04 17:27:00,
2013-04-04 12:32:00,50.5,33.0,30.05,ESE,105,3.5,3.5,51,0.00,CLR,,0.00,WeatherDisplay:10.37,2013-04-04 17:32:00,
2013-04-04 12:38:00,50.6,33.1,30.05,East,84,3.5,3.5,51,0.00,CLR,,0.00,WeatherDisplay:10.37,2013-04-04 17:38:00,
2013-04-04 12:43:00,50.8,33.3,30.05,SE,145,3.5,3.5,51,0.00,CLR,,0.00,WeatherDisplay:10.37,2013-04-04 17:43:00,
2013-04-04 12:48:00,50.7,32.7,30.04,ENE,74,3.5,3.5,50,0.00,CLR,,0.00,WeatherDisplay:10.37,2013-04-04 17:48:00,
2013-04-04 12:53:00,50.6,32.6,30.04,East,86,3.5,3.5,50,0.00,CLR,,0.00,WeatherDisplay:10.37,2013-04-04 17:53:00,
2013-04-04 12:58:00,50.7,33.2,30.04,East,83,3.5,3.5,51,0.00,CLR,,0.00,WeatherDisplay:10.37,2013-04-04 17:58:00,
2013-04-04 13:03:00,50.8,33.8,30.04,ENE,69,1.1,1.1,52,0.00,CLR,,0.00,WeatherDisplay:10.37,2013-04-04 18:03:00,
2013-04-04 13:08:00,50.8,33.8,30.04,ENE,67,0.0,0.0,52,0.00,CLR,,0.00,WeatherDisplay:10.37,2013-04-04 18:08:00,
2013-04-04 13:13:00,50.8,33.3,30.04,East,84,1.1,1.1,51,0.00,CLR,,0.00,WeatherDisplay:10.37,2013-04-04 18:13:00,
2013-04-04 13:18:00,50.7,33.7,30.04,East,84,1.1,1.1,52,0.00,CLR,,0.00,WeatherDisplay:10.37,2013-04-04 18:18:00,
2013-04-04 13:23:00,50.6,34.1,30.03,East,88,1.1,1.1,53,0.00,CLR,,0.00,WeatherDisplay:10.37,2013-04-04 18:23:00,
2013-04-04 13:28:00,50.7,34.2,30.03,East,88,0.0,0.0,53,0.00,CLR,,0.00,WeatherDisplay:10.37,2013-04-04 18:28:00,
2013-04-04 13:33:00,50.7,33.7,30.03,NE,53,0.0,0.0,52,0.00,CLR,,0.00,WeatherDisplay:10.37,2013-04-04 18:33:00,
2013-04-04 13:38:00,50.5,34.0,30.03,NNE,19,1.1,1.1,53,0.00,CLR,,0.00,WeatherDisplay:10.37,2013-04-04 18:38:00,
2013-04-04 13:43:00,50.6,34.1,30.02,NNE,12,0.0,0.0,53,0.00,CLR,,0.00,WeatherDisplay:10.37,2013-04-04 18:43:00,
2013-04-04 13:48:00,51.0,35.4,30.02,NNE,12,0.0,0.0,55,0.00,CLR,,0.00,WeatherDisplay:10.37,2013-04-04 18:48:00,
2013-04-04 13:53:00,51.5,34.0,30.02,NNE,18,1.1,1.1,51,0.00,CLR,,0.00,WeatherDisplay:10.37,2013-04-04 18:53:00,
2013-04-04 13:58:00,51.8,34.2,30.02,NE,46,1.1,1.1,51,0.00,CLR,,0.00,WeatherDisplay:10.37,2013-04-04 18:58:00,
2013-04-04 14:03:00,52.2,34.6,30.02,SSE,150,0.0,0.0,51,0.00,CLR,,0.00,WeatherDisplay:10.37,2013-04-04 19:03:00,
2013-04-04 14:08:00,52.8,34.7,30.02,NE,36,0.0,0.0,50,0.00,CLR,,0.00,WeatherDisplay:10.37,2013-04-04 19:08:00,
2013-04-04 14:13:00,53.2,34.0,30.02,NE,45,0.0,0.0,48,0.00,CLR,,0.00,WeatherDisplay:10.37,2013-04-04 19:13:00,
2013-04-04 14:18:00,53.9,35.2,30.02,NNE,29,1.0,0.0,49,0.00,CLR,,0.00,WeatherDisplay:10.37,2013-04-04 19:18:00,
2013-04-04 14:23:00,54.5,34.1,30.02,NE,42,3.5,3.5,46,0.00,CLR,,0.00,WeatherDisplay:10.37,2013-04-04 19:23:00,
2013-04-04 14:28:00,54.8,35.5,30.01,NNE,15,2.3,2.3,48,0.00,CLR,,0.00,WeatherDisplay:10.37,2013-04-04 19:28:00,
2013-04-04 14:33:00,54.9,35.0,30.01,ENE,65,1.1,1.1,47,0.00,CLR,,0.00,WeatherDisplay:10.37,2013-04-04 19:33:00,
2013-04-04 14:38:00,55.3,33.7,30.01,ENE,67,2.3,0.0,44,0.00,CLR,,0.00,WeatherDisplay:10.37,2013-04-04 19:38:00,
2013-04-04 14:43:00,55.3,33.7,30.01,NE,38,2.3,2.3,44,0.00,CLR,,0.00,WeatherDisplay:10.37,2013-04-04 19:43:00,
2013-04-04 14:48:00,55.0,34.6,30.01,NNE,26,2.3,2.3,46,0.00,CLR,,0.00,WeatherDisplay:10.37,2013-04-04 19:48:00,
2013-04-04 14:53:00,54.8,33.3,30.01,NNW,348,2.3,2.3,44,0.00,CLR,,0.00,WeatherDisplay:10.37,2013-04-04 19:53:00,
2013-04-04 14:58:00,54.9,32.8,30.00,NE,50,2.3,2.3,43,0.00,CLR,,0.00,WeatherDisplay:10.37,2013-04-04 19:58:00,
2013-04-04 15:03:00,55.1,33.0,30.00,ENE,62,3.5,3.5,43,0.00,CLR,,0.00,WeatherDisplay:10.37,2013-04-04 20:03:00,
2013-04-04 15:08:00,55.2,32.5,30.00,NNE,30,1.1,1.1,42,0.00,CLR,,0.00,WeatherDisplay:10.37,2013-04-04 20:08:00,
2013-04-04 15:13:00,55.2,31.9,30.00,NNE,26,2.3,2.3,41,0.00,CLR,,0.00,WeatherDisplay:10.37,2013-04-04 20:13:00,
2013-04-04 15:18:00,55.4,32.1,30.00,NNE,15,1.1,1.1,41,0.00,CLR,,0.00,WeatherDisplay:10.37,2013-04-04 20:18:00,
2013-04-04 15:23:00,55.3,31.4,29.99,North,360,1.1,1.1,40,0.00,CLR,,0.00,WeatherDisplay:10.37,2013-04-04 20:23:00,
2013-04-04 15:28:00,55.2,33.1,29.99,North,360,0.0,0.0,43,0.00,CLR,,0.00,WeatherDisplay:10.37,2013-04-04 20:28:00,
2013-04-04 15:33:00,55.4,31.5,29.99,NE,40,2.3,2.3,40,0.00,CLR,,0.00,WeatherDisplay:10.37,2013-04-04 20:33:00,
2013-04-04 15:39:00,55.3,30.7,29.99,NNE,30,1.1,1.1,39,0.00,CLR,,0.00,WeatherDisplay:10.37,2013-04-04 20:39:00,
2013-04-04 15:44:00,55.0,31.1,29.99,NE,54,1.1,1.1,40,0.00,CLR,,0.00,WeatherDisplay:10.37,2013-04-04 20:44:00,
2013-04-04 15:49:00,55.1,32.4,29.99,ENE,76,0.0,0.0,42,0.00,CLR,,0.00,WeatherDisplay:10.37,2013-04-04 20:49:00,
2013-04-04 15:54:00,55.2,31.3,29.99,ENE,64,1.1,1.1,40,0.00,CLR,,0.00,WeatherDisplay:10.37,2013-04-04 20:54:00,
2013-04-04 15:59:00,55.1,29.9,29.99,NNE,19,2.3,2.3,38,0.00,CLR,,0.00,WeatherDisplay:10.37,2013-04-04 20:59:00,
2013-04-04 16:04:00,55.0,31.7,29.98,East,90,0.0,0.0,41,0.00,CLR,,0.00,WeatherDisplay:10.37,2013-04-04 21:04:00,
2013-04-04 16:09:00,55.0,32.9,29.98,East,88,0.0,0.0,43,0.00,CLR,,0.00,WeatherDisplay:10.37,2013-04-04 21:09:00,
2013-04-04 16:14:00,54.9,33.4,29.98,ESE,103,2.0,2.0,44,0.00,CLR,,0.00,WeatherDisplay:10.37,2013-04-04 21:14:00,
2013-04-04 16:19:00,55.0,32.3,29.98,East,79,1.1,1.1,42,0.00,CLR,,0.00,WeatherDisplay:10.37,2013-04-04 21:19:00,
2013-04-04 16:24:00,55.1,33.0,29.98,East,86,0.0,0.0,43,0.00,CLR,,0.00,WeatherDisplay:10.37,2013-04-04 21:24:00,
2013-04-04 16:30:00,55.2,33.1,29.98,East,86,0.0,0.1,43,0.00,CLR,,0.00,WeatherDisplay:10.37,2013-04-04 21:30:00,
2013-04-04 16:35:00,55.3,33.2,29.98,ESE,123,1.1,1.1,43,0.00,CLR,,0.00,WeatherDisplay:10.37,2013-04-04 21:35:00,
2013-04-04 16:40:00,55.4,33.8,29.98,ESE,107,1.1,0.0,44,0.00,CLR,,0.00,WeatherDisplay:10.37,2013-04-04 21:40:00,
2013-04-04 16:45:00,55.5,32.2,29.98,NE,37,0.0,0.0,41,0.00,CLR,,0.00,WeatherDisplay:10.37,2013-04-04 21:45:00,
2013-04-04 16:50:00,55.4,31.5,29.98,NE,37,0.0,0.1,40,0.00,CLR,,0.00,WeatherDisplay:10.37,2013-04-04 21:50:00,
2013-04-04 16:55:00,55.4,32.7,29.98,NE,38,0.0,0.0,42,0.00,CLR,,0.00,WeatherDisplay:10.37,2013-04-04 21:55:00,
2013-04-04 17:00:00,55.8,32.4,29.97,NE,34,0.0,0.1,41,0.00,CLR,,0.00,WeatherDisplay:10.37,2013-04-04 22:00:00,
2013-04-04 17:05:00,56.2,33.4,29.97,NE,34,1.1,1.1,42,0.00,CLR,,0.00,WeatherDisplay:10.37,2013-04-04 22:05:00,
2013-04-04 17:10:00,56.2,32.2,29.98,NE,52,0.0,0.0,40,0.00,CLR,,0.00,WeatherDisplay:10.37,2013-04-04 22:10:00,
2013-04-04 17:15:00,56.0,32.0,29.98,NE,52,0.0,0.0,40,0.00,CLR,,0.00,WeatherDisplay:10.37,2013-04-04 22:15:00,
2013-04-04 17:20:00,55.8,32.4,29.98,NE,52,0.0,0.0,41,0.00,CLR,,0.00,WeatherDisplay:10.37,2013-04-04 22:20:00,
2013-04-04 17:25:00,55.7,31.1,29.98,NE,52,0.0,0.0,39,0.00,CLR,,0.00,WeatherDisplay:10.37,2013-04-04 22:25:00,
2013-04-04 17:30:00,55.6,31.0,29.98,NE,52,0.0,0.0,39,0.00,CLR,,0.00,WeatherDisplay:10.37,2013-04-04 22:30:00,
2013-04-04 17:35:00,55.4,31.5,29.98,NE,52,0.0,0.0,40,0.00,CLR,,0.00,WeatherDisplay:10.37,2013-04-04 22:35:00,
2013-04-04 17:40:00,55.3,30.7,29.98,NE,52,0.0,0.0,39,0.00,CLR,,0.00,WeatherDisplay:10.37,2013-04-04 22:40:00,
2013-04-04 17:45:00,55.4,31.5,29.98,NNE,29,1.1,1.1,40,0.00,CLR,,0.00,WeatherDisplay:10.37,2013-04-04 22:45:00,
2013-04-04 17:50:00,55.4,30.8,29.98,NNW,340,0.0,0.0,39,0.00,CLR,,0.00,WeatherDisplay:10.37,2013-04-04 22:50:00,
2013-04-04 17:55:00,55.4,30.8,29.98,NNW,340,0.0,0.0,39,0.00,CLR,,0.00,WeatherDisplay:10.37,2013-04-04 22:55:00,
2013-04-04 18:00:00,55.4,32.1,29.98,NNW,340,0.0,0.0,41,0.00,CLR,,0.00,WeatherDisplay:10.37,2013-04-04 23:00:00,
2013-04-04 18:05:00,55.5,33.3,29.98,NNW,340,0.0,0.0,43,0.00,CLR,,0.00,WeatherDisplay:10.37,2013-04-04 23:05:00,
2013-04-04 18:10:00,55.5,32.8,29.98,NNW,340,0.0,0.0,42,0.00,CLR,,0.00,WeatherDisplay:10.37,2013-04-04 23:10:00,
2013-04-04 18:15:00,55.6,32.8,29.98,NNW,340,0.0,0.0,42,0.00,CLR,,0.00,WeatherDisplay:10.37,2013-04-04 23:15:00,
2013-04-04 18:20:00,55.5,31.5,29.98,NNW,340,0.0,0.0,40,0.00,CLR,,0.00,WeatherDisplay:10.37,2013-04-04 23:20:00,
2013-04-04 18:25:00,55.5,32.8,29.98,NNW,340,0.0,0.0,42,0.00,CLR,,0.00,WeatherDisplay:10.37,2013-04-04 23:25:00,
2013-04-04 18:30:00,55.4,32.7,29.98,NNW,340,0.0,0.0,42,0.00,CLR,,0.00,WeatherDisplay:10.37,2013-04-04 23:30:00,
2013-04-04 18:35:00,55.2,31.9,29.98,NNW,340,0.0,0.0,41,0.00,CLR,,0.00,WeatherDisplay:10.37,2013-04-04 23:35:00,
2013-04-04 18:40:00,55.0,31.7,29.98,NNW,340,0.0,0.0,41,0.00,CLR,,0.00,WeatherDisplay:10.37,2013-04-04 23:40:00,
2013-04-04 18:45:00,54.9,32.2,29.98,NNW,340,0.0,0.0,42,0.00,CLR,,0.00,WeatherDisplay:10.37,2013-04-04 23:45:00,
2013-04-04 18:50:00,54.7,31.4,29.98,NNW,340,0.0,0.0,41,0.00,CLR,,0.00,WeatherDisplay:10.37,2013-04-04 23:50:00,
2013-04-04 18:55:00,54.6,31.3,29.98,NNW,340,0.0,0.0,41,0.00,CLR,,0.00,WeatherDisplay:10.37,2013-04-04 23:55:00,
2013-04-04 19:00:00,54.7,33.2,29.98,NNW,340,0.0,0.0,44,0.00,CLR,,0.00,WeatherDisplay:10.37,2013-04-05 00:00:00,
2013-04-04 19:05:00,54.5,32.4,29.98,NNW,340,0.0,0.0,43,0.00,CLR,,0.00,WeatherDisplay:10.37,2013-04-05 00:05:00,
2013-04-04 19:10:00,54.4,32.3,29.98,NNW,340,0.0,0.0,43,0.00,CLR,,0.00,WeatherDisplay:10.37,2013-04-05 00:10:00,
2013-04-04 19:15:00,54.2,31.6,29.98,NNW,340,0.0,0.0,42,0.00,CLR,,0.00,WeatherDisplay:10.37,2013-04-05 00:15:00,
2013-04-04 19:20:00,54.1,31.5,29.98,NNW,340,0.0,0.0,42,0.00,CLR,,0.00,WeatherDisplay:10.37,2013-04-05 00:20:00,
2013-04-04 19:25:00,53.8,31.8,29.98,NNW,340,0.0,0.0,43,0.00,CLR,,0.00,WeatherDisplay:10.37,2013-04-05 00:25:00,
2013-04-04 19:30:00,53.4,34.2,29.98,NNW,340,0.0,0.0,48,0.00,CLR,,0.00,WeatherDisplay:10.37,2013-04-05 00:30:00,
2013-04-04 19:36:00,53.0,36.3,29.98,NNW,340,0.0,0.0,53,0.00,CLR,,0.00,WeatherDisplay:10.37,2013-04-05 00:36:00,
2013-04-04 19:41:00,52.4,37.2,29.98,NNW,340,0.0,0.0,56,0.00,CLR,,0.00,WeatherDisplay:10.37,2013-04-05 00:41:00,
2013-04-04 19:46:00,52.0,37.7,29.98,NNW,340,0.0,0.0,58,0.00,CLR,,0.00,WeatherDisplay:10.37,2013-04-05 00:46:00,
2013-04-04 19:51:00,51.6,37.7,29.98,NNW,340,0.0,0.0,59,0.00,CLR,,0.00,WeatherDisplay:10.37,2013-04-05 00:51:00,
2013-04-04 19:56:00,51.2,38.2,29.98,NNW,340,0.0,0.0,61,0.00,CLR,,0.00,WeatherDisplay:10.37,2013-04-05 00:56:00,
2013-04-04 20:01:00,50.9,38.3,29.98,NNW,340,0.0,0.0,62,0.00,CLR,,0.00,WeatherDisplay:10.37,2013-04-05 01:01:00,
2013-04-04 20:06:00,50.6,38.5,29.98,NNW,340,0.0,0.0,63,0.00,CLR,,0.00,WeatherDisplay:10.37,2013-04-05 01:06:00,
2013-04-04 20:11:00,50.4,38.7,29.98,NNW,340,0.0,0.0,64,0.00,CLR,,0.00,WeatherDisplay:10.37,2013-04-05 01:11:00,
2013-04-04 20:16:00,50.1,38.8,29.98,NNW,340,0.0,0.0,65,0.00,CLR,,0.00,WeatherDisplay:10.37,2013-04-05 01:16:00,
2013-04-04 20:21:00,49.8,38.5,29.98,NNW,340,0.0,0.0,65,0.00,CLR,,0.00,WeatherDisplay:10.37,2013-04-05 01:21:00,
2013-04-04 20:26:00,49.5,38.6,29.98,NNW,340,0.0,0.0,66,0.00,CLR,,0.00,WeatherDisplay:10.37,2013-04-05 01:26:00,
2013-04-04 20:31:00,49.2,38.3,29.99,NNW,340,0.0,0.0,66,0.00,CLR,,0.00,WeatherDisplay:10.37,2013-04-05 01:31:00,
2013-04-04 20:36:00,48.9,38.4,29.98,NNW,340,0.0,0.0,67,0.00,CLR,,0.00,WeatherDisplay:10.37,2013-04-05 01:36:00,
2013-04-04 20:41:00,48.5,38.4,29.99,NNW,340,0.0,0.0,68,0.00,CLR,,0.00,WeatherDisplay:10.37,2013-04-05 01:41:00,
2013-04-04 20:46:00,48.2,38.5,29.99,NNW,340,0.0,0.0,69,0.00,CLR,,0.00,WeatherDisplay:10.37,2013-04-05 01:46:00,
2013-04-04 20:51:00,48.0,38.7,29.99,NNW,340,0.0,0.0,70,0.00,CLR,,0.00,WeatherDisplay:10.37,2013-04-05 01:51:00,
2013-04-04 20:57:00,47.8,38.5,29.99,NNW,340,0.0,0.0,70,0.00,CLR,,0.00,WeatherDisplay:10.37,2013-04-05 01:57:00,
2013-04-04 21:02:00,47.5,38.6,29.99,NNW,340,0.0,0.0,71,0.00,CLR,,0.00,WeatherDisplay:10.37,2013-04-05 02:02:00,
2013-04-04 21:07:00,47.3,38.7,29.99,NNW,340,0.0,0.0,72,0.00,CLR,,0.00,WeatherDisplay:10.37,2013-04-05 02:07:00,
2013-04-04 21:12:00,46.9,38.3,29.99,NNW,340,0.0,0.0,72,0.00,CLR,,0.00,WeatherDisplay:10.37,2013-04-05 02:12:00,
2013-04-04 21:17:00,46.7,38.5,29.99,NNW,340,0.0,0.0,73,0.00,CLR,,0.00,WeatherDisplay:10.37,2013-04-05 02:17:00,
2013-04-04 21:22:00,46.4,38.2,30.00,NNW,340,0.0,0.0,73,0.00,CLR,,0.00,WeatherDisplay:10.37,2013-04-05 02:22:00,
2013-04-04 21:27:00,46.0,38.2,30.00,NNW,340,0.0,0.0,74,0.00,CLR,,0.00,WeatherDisplay:10.37,2013-04-05 02:27:00,
2013-04-04 21:32:00,45.8,38.3,30.00,NNW,340,0.0,0.0,75,0.00,CLR,,0.00,WeatherDisplay:10.37,2013-04-05 02:32:00,
2013-04-04 21:37:00,45.8,38.7,29.99,NNW,340,0.0,0.0,76,0.00,CLR,,0.00,WeatherDisplay:10.37,2013-04-05 02:37:00,
2013-04-04 21:42:00,45.8,38.7,30.00,NNW,340,0.0,0.0,76,0.00,CLR,,0.00,WeatherDisplay:10.37,2013-04-05 02:42:00,
2013-04-04 21:47:00,45.9,38.8,30.00,NNW,340,0.0,0.0,76,0.00,CLR,,0.00,WeatherDisplay:10.37,2013-04-05 02:47:00,
2013-04-04 21:52:00,45.9,38.8,30.00,NNW,340,0.0,0.0,76,0.00,CLR,,0.00,WeatherDisplay:10.37,2013-04-05 02:52:00,
2013-04-04 21:57:00,45.8,39.0,30.00,NNW,340,0.0,0.0,77,0.00,CLR,,0.00,WeatherDisplay:10.37,2013-04-05 02:57:00,
2013-04-04 22:02:00,45.7,38.9,30.00,NNW,340,0.0,0.0,77,0.00,CLR,,0.00,WeatherDisplay:10.37,2013-04-05 03:02:00,
2013-04-04 22:07:00,45.6,38.8,30.00,NNW,340,0.0,0.0,77,0.00,CLR,,0.00,WeatherDisplay:10.37,2013-04-05 03:07:00,
2013-04-04 22:12:00,45.4,38.6,30.00,NNW,340,0.0,0.0,77,0.00,CLR,,0.00,WeatherDisplay:10.37,2013-04-05 03:12:00,
2013-04-04 22:17:00,45.1,38.3,30.00,NNW,340,0.0,0.0,77,0.00,CLR,,0.00,WeatherDisplay:10.37,2013-04-05 03:17:00,
2013-04-04 22:22:00,45.0,38.6,30.00,NNW,340,0.0,0.0,78,0.00,CLR,,0.00,WeatherDisplay:10.37,2013-04-05 03:22:00,
2013-04-04 22:27:00,44.8,38.4,30.00,NNW,340,0.0,0.0,78,0.00,CLR,,0.00,WeatherDisplay:10.37,2013-04-05 03:27:00,
2013-04-04 22:32:00,44.6,38.2,30.00,NNW,340,0.0,0.0,78,0.00,CLR,,0.00,WeatherDisplay:10.37,2013-04-05 03:32:00,
2013-04-04 22:37:00,44.4,38.3,30.00,NNW,340,0.0,0.0,79,0.00,CLR,,0.00,WeatherDisplay:10.37,2013-04-05 03:37:00,
2013-04-04 22:42:00,44.4,38.6,30.00,NNW,340,0.0,0.0,80,0.00,CLR,,0.00,WeatherDisplay:10.37,2013-04-05 03:42:00,
2013-04-04 22:47:00,44.4,38.3,30.00,NNW,340,0.0,0.0,79,0.00,CLR,,0.00,WeatherDisplay:10.37,2013-04-05 03:47:00,
2013-04-04 22:52:00,44.3,38.2,30.00,NNW,340,0.0,0.0,79,0.00,CLR,,0.00,WeatherDisplay:10.37,2013-04-05 03:52:00,
2013-04-04 22:57:00,44.2,38.4,30.00,NNW,340,0.0,0.0,80,0.00,CLR,,0.00,WeatherDisplay:10.37,2013-04-05 03:57:00,
2013-04-04 23:00:00,44.2,38.7,30.00,NNW,340,0.0,0.0,81,0.00,CLR,,0.00,WeatherDisplay:10.37,2013-04-05 04:00:00,
2013-04-04 23:05:00,44.3,38.8,30.00,NNW,340,0.0,0.0,81,0.00,CLR,,0.00,WeatherDisplay:10.37,2013-04-05 04:05:00,
2013-04-04 23:10:00,44.4,38.9,30.00,NNW,340,0.0,0.0,81,0.00,CLR,,0.00,WeatherDisplay:10.37,2013-04-05 04:10:00,
2013-04-04 23:15:00,44.4,38.9,30.01,NW,319,1.1,1.1,81,0.00,CLR,,0.00,WeatherDisplay:10.37,2013-04-05 04:15:00,
2013-04-04 23:20:00,44.4,38.9,30.01,NW,319,1.1,1.1,81,0.00,CLR,,0.00,WeatherDisplay:10.37,2013-04-05 04:20:00,
2013-04-04 23:25:00,44.4,39.2,30.01,NW,319,0.0,0.0,82,0.00,CLR,,0.00,WeatherDisplay:10.37,2013-04-05 04:25:00,
2013-04-04 23:30:00,44.3,39.2,30.01,NW,319,0.0,0.0,82,0.00,CLR,,0.00,WeatherDisplay:10.37,2013-04-05 04:30:00,
2013-04-04 23:35:00,44.1,39.0,30.01,NW,319,0.0,0.0,82,0.00,CLR,,0.00,WeatherDisplay:10.37,2013-04-05 04:35:00,
2013-04-04 23:40:00,44.2,39.4,30.01,NW,319,1.0,0.0,83,0.00,CLR,,0.00,WeatherDisplay:10.37,2013-04-05 04:40:00,
2013-04-04 23:45:00,44.1,39.6,30.01,NW,319,1.1,1.1,84,0.00,CLR,,0.00,WeatherDisplay:10.37,2013-04-05 04:45:00,
2013-04-04 23:50:00,43.9,39.1,30.01,NW,319,0.0,0.0,83,0.00,CLR,,0.00,WeatherDisplay:10.37,2013-04-05 04:50:00,
2013-04-04 23:55:00,43.8,39.3,30.01,NW,319,0.0,0.0,84,0.00,CLR,,0.00,WeatherDisplay:10.37,2013-04-05 04:55:00,